Wind_Speed
7 7 7 8 6 5 5 4 3 3 4 5 5 7 7 7 9 10 9 9 9 10 13 13 12 11 14 16 13 12 13 12 10 11 12 12 12 11 10 10 10 9 9 8 8 8 8 8 8 9 9 7 4 3 5 6 8 7 4 4 4 5 4 3 4 4 5 7 8 7 6 6 6 6 7 7 8 9 9 10 11 12 12 13 13
8 8 8 9 6 4 5 5 5 4 5 6 7 8 7 6 9 9 7 8 9 11 12 12 12 10 9 13 14 14 13 12 11 10 13 15 14 13 12 12 11 11 11 10 10 9 10 10 9 11 10 8 7 4 6 8 9 8 5 5 5 5 5 4 4 3 4 6 9 9 8 7 6 7 7 7 8 9 10 10 11 12 12 13 13
11 9 9 10 9 7 8 8 8 6 5 7 9 9 8 7 9 9 10 10 11 12 11 12 13 11 10 10 10 11 11 11 12 12 12 13 14 14 13 13 13 13 13 13 12 11 11 12 12 13 11 10 10 7 6 8 8 7 6 5 6 6 6 6 5 4 4 5 8 9 8 8 7 7 7 7 8 9 10 11 11 12 13 14 14
12 10 9 10 10 9 10 9 9 8 7 9 10 9 10 10 10 11 11 12 13 14 14 14 14 13 12 12 12 12 11 10 12 14 15 15 14 15 16 16 15 15 14 15 14 14 13 13 14 15 12 12 11 10 8 8 8 8 7 7 7 7 7 7 6 6 5 5 7 8 8 8 8 8 8 8 8 8 10 11 11 12 13 13 14
12 9 9 9 9 8 9 8 9 9 9 9 10 10 10 11 11 11 11 12 13 14 14 15 15 14 14 15 15 15 14 12 12 13 15 16 17 18 19 18 17 17 16 16 16 17 16 15 16 15 15 14 13 13 10 9 10 9 9 9 8 8 8 8 8 7 6 7 8 8 8 8 8 9 9 8 8 8 10 11 12 12 12 13 14
12 10 9 9 8 7 7 8 9 10 10 10 10 11 11 11 11 10 11 11 13 13 13 14 15 15 15 16 16 15 16 16 14 14 14 15 18 20 21 21 20 19 19 18 18 18 18 18 17 17 17 16 14 15 12 11 12 11 10 10 9 10 9 9 9 8 8 8 9 9 9 8 8 10 10 9 9 9 10 11 12 13 12 12 12
11 10 9 8 7 6 7 6 7 8 9 9 9 9 10 10 9 9 10 11 12 13 13 14 15 16 16 16 16 16 17 17 16 17 17 16 17 19 22 23 23 22 21 20 19 19 19 19 19 19 20 19 16 16 15 13 13 12 12 12 11 11 11 10 10 9 10 10 11 9 9 9 9 10 11 10 10 10 10 11 12 13 12 11 11
8 8 7 7 6 5 5 5 5 6 7 7 7 8 8 7 8 9 10 11 12 13 13 13 15 15 14 14 15 15 16 17 18 19 19 18 18 19 21 23 23 24 23 22 21 20 20 21 21 21 22 21 18 18 17 15 15 14 14 13 12 12 11 11 10 10 11 11 12 10 10 10 11 11 11 12 11 10 11 11 12 12 12 12 11
7 6 6 7 6 5 6 6 7 6 5 6 8 8 7 8 9 9 10 11 12 13 14 14 15 15 15 14 14 14 15 16 18 19 19 19 19 20 21 23 24 24 24 24 23 22 20 21 22 23 23 22 21 21 20 18 16 16 15 14 14 13 12 12 11 11 11 12 13 12 10 10 12 12 12 13 12 12 12 11 11 12 13 13 13
8 7 6 8 7 5 5 6 6 5 6 7 7 6 6 8 10 10 11 12 13 13 15 16 16 17 17 17 16 17 17 18 19 19 20 20 21 22 23 23 24 25 26 25 25 23 22 22 23 24 25 25 24 23 22 20 18 17 17 16 15 14 13 13 12 11 12 13 14 14 12 10 12 13 13 13 14 13 13 13 12 13 14 13 13
9 9 7 8 8 4 4 6 6 5 6 7 7 7 8 10 11 12 12 12 13 14 15 16 16 17 18 19 19 19 19 19 21 22 22 23 23 23 24 24 25 25 26 26 26 25 25 25 25 24 25 26 26 26 24 22 20 18 18 17 16 16 15 14 13 13 13 14 15 15 14 12 12 14 14 13 14 14 14 14 13 13 13 13 12
8 9 7 7 9 5 3 7 7 6 6 7 8 8 10 11 11 11 12 13 14 15 15 15 17 19 19 18 17 18 20 20 20 21 22 24 24 24 24 25 25 24 25 26 26 27 26 25 24 24 25 26 27 28 27 25 22 21 20 19 18 18 17 15 14 14 14 15 16 16 15 13 12 14 15 14 15 15 15 15 14 13 13 13 13
8 9 6 6 9 5 3 4 6 6 6 7 8 8 10 12 12 12 13 14 16 16 16 16 16 16 16 16 18 18 16 17 19 20 22 24 25 24 24 25 24 23 25 25 25 26 25 25 25 24 25 25 27 28 28 27 25 24 23 21 20 19 18 17 15 14 15 16 17 17 16 14 13 14 16 15 15 16 16 15 15 14 13 14 14
9 10 6 4 6 5 3 4 5 6 7 8 8 8 10 11 11 13 14 14 16 15 16 14 11 11 12 12 15 15 13 15 13 12 15 19 21 22 24 25 24 22 24 25 25 26 26 25 26 26 25 25 26 28 28 29 28 27 25 23 22 20 19 19 17 15 17 17 17 18 17 16 15 15 16 16 16 17 17 16 15 14 14 13 13
11 10 6 4 5 4 3 3 3 5 6 7 7 7 8 9 9 11 12 13 13 12 14 13 10 12 10 6 5 7 10 11 8 10 17 17 15 17 20 23 22 18 19 23 23 24 25 25 24 25 25 26 27 28 29 30 29 29 27 25 24 23 20 20 19 17 18 19 18 18 18 16 15 15 16 18 17 17 18 16 15 15 14 13 13
10 10 6 4 4 4 3 2 2 3 5 5 6 6 7 8 8 9 10 11 10 10 13 14 12 10 6 3 3 3 4 5 9 17 20 13 11 16 18 21 20 13 12 18 21 22 23 22 22 23 24 26 27 29 29 30 29 29 29 28 27 25 22 21 20 18 19 21 20 19 19 17 16 15 17 20 18 18 19 17 16 16 15 14 14
9 8 6 4 3 2 2 2 1 2 4 4 5 6 6 7 8 9 9 10 11 11 13 13 14 11 6 4 3 2 2 4 9 13 13 12 16 18 17 19 19 14 10 13 19 22 20 20 21 23 25 26 28 29 29 30 29 28 30 31 29 26 25 23 22 21 20 22 22 20 20 19 18 17 18 20 21 20 20 18 17 17 15 15 15
8 7 6 6 4 3 2 1 1 2 3 4 5 6 7 8 9 10 10 11 12 12 12 14 15 12 9 7 5 4 6 5 5 5 10 16 16 15 18 20 20 18 15 13 17 21 21 20 20 22 24 25 27 27 28 30 31 29 30 31 28 25 27 27 24 22 21 22 23 21 20 20 20 19 18 21 23 21 20 19 18 18 17 17 17
9 7 5 4 3 2 1 1 2 3 4 4 5 6 7 8 9 10 11 11 12 12 12 15 14 12 12 12 11 10 9 7 4 3 7 11 12 17 21 21 19 18 19 18 17 17 20 21 20 21 22 23 25 26 26 28 32 31 29 30 28 25 27 29 27 25 22 23 24 22 21 20 21 21 20 22 24 22 20 20 20 19 19 19 18
7 6 4 2 2 2 1 2 3 4 5 5 6 6 7 8 9 9 9 10 11 12 12 13 13 15 17 16 16 15 11 10 9 7 4 5 11 17 19 21 22 21 20 19 19 18 19 22 23 23 23 22 24 26 25 26 31 32 31 30 29 25 25 28 30 29 25 24 24 23 23 21 20 21 21 24 25 23 21 21 21 20 21 20 20
7 5 5 5 4 3 2 2 3 5 6 6 6 6 7 8 9 9 10 10 10 10 11 13 13 15 17 17 17 17 15 13 10 8 5 5 6 8 13 19 22 25 24 21 20 19 18 21 23 25 25 24 24 25 25 25 28 32 33 31 29 27 25 25 29 31 28 25 24 23 23 22 20 20 21 24 25 23 22 22 22 22 22 22 23
8 6 5 4 2 1 1 1 3 4 6 6 7 7 7 9 10 10 10 10 10 10 11 12 13 14 14 15 15 16 14 11 8 8 6 6 6 6 11 13 13 22 28 24 21 19 17 19 21 23 25 25 24 24 26 25 26 30 34 33 31 31 28 25 27 30 29 27 26 25 23 22 21 21 22 25 26 24 23 23 23 23 23 24 26
7 6 4 2 1 1 2 2 3 4 6 7 8 8 9 9 10 10 10 11 11 12 13 13 13 14 14 14 14 14 13 10 12 13 7 5 6 6 10 12 12 18 25 25 23 20 18 18 19 21 24 25 24 24 26 26 26 30 33 33 32 32 30 27 28 29 29 29 28 26 23 22 22 24 24 26 26 24 23 24 24 24 25 27 27
7 5 3 1 1 2 3 3 4 6 6 7 7 7 8 8 9 9 10 11 12 12 13 13 14 15 15 14 14 15 15 13 14 14 10 11 11 6 9 13 10 13 22 24 22 21 19 18 19 20 21 24 25 25 26 26 26 28 30 30 32 33 32 28 29 30 29 31 31 28 25 23 24 26 26 27 26 24 25 26 25 25 27 27 25
6 5 4 3 3 3 4 4 6 7 6 6 6 6 7 7 8 8 10 12 13 13 13 13 14 14 15 14 13 14 14 13 12 12 13 14 12 7 10 13 9 10 19 20 17 19 19 18 17 17 18 20 23 24 26 26 26 27 27 28 30 33 31 29 30 31 30 32 33 31 28 25 26 28 27 27 27 26 27 27 25 26 28 26 24
6 5 5 4 4 4 3 4 6 7 6 6 6 7 8 8 8 8 10 13 13 14 14 13 13 12 12 12 12 12 12 11 11 12 13 13 13 10 10 11 9 10 14 14 13 14 15 18 17 15 15 17 20 23 25 25 26 28 27 27 29 32 32 30 32 32 30 32 35 33 30 27 28 29 29 29 29 28 29 28 27 27 27 26 24
7 5 4 4 5 4 3 4 5 7 7 7 7 7 8 8 8 8 10 12 13 14 14 13 14 13 12 11 11 13 13 13 13 12 12 12 14 14 12 8 6 6 8 9 9 10 14 17 16 14 13 14 17 20 23 24 25 27 27 26 29 32 33 33 33 32 30 32 36 36 33 30 30 30 31 31 30 30 31 29 29 29 28 27 25
6 5 5 4 4 4 4 4 4 5 6 7 7 7 7 8 9 10 11 12 14 15 15 15 15 15 14 13 13 13 13 13 13 14 14 13 13 14 14 11 7 4 4 6 6 7 13 15 13 13 13 11 12 15 18 22 24 25 25 25 28 31 33 34 35 34 33 34 37 39 37 33 32 32 32 33 31 32 32 31 30 30 29 28 26
4 5 5 3 3 3 4 5 4 4 6 7 6 6 7 9 11 11 12 13 14 15 15 15 15 15 15 15 15 15 13 12 13 14 14 14 13 13 13 13 11 6 3 4 5 6 12 15 12 11 12 11 11 13 15 18 21 23 24 25 28 31 32 35 37 37 36 36 37 39 39 36 34 33 33 34 33 33 33 32 31 30 30 29 28
4 5 4 3 2 3 3 5 5 6 8 8 7 6 8 10 11 11 11 13 15 15 15 16 16 17 18 18 18 17 15 14 13 13 13 13 14 14 14 14 13 10 6 5 4 6 11 14 13 13 14 16 16 16 14 14 16 18 21 24 27 30 33 35 38 39 40 39 37 40 41 39 37 34 33 34 35 35 34 33 32 31 30 30 29
5 4 4 4 4 3 3 5 7 7 9 9 8 8 10 11 11 11 12 12 14 15 16 16 16 17 19 20 21 21 19 17 15 13 13 12 13 15 16 16 14 13 12 8 4 6 12 15 18 19 19 19 20 18 15 13 13 15 19 21 24 28 32 35 37 39 42 41 40 41 42 41 40 36 33 34 36 37 36 35 34 33 32 31 31
7 5 3 4 5 4 4 5 7 8 9 9 8 9 12 11 10 12 13 13 14 14 14 15 15 18 20 22 25 25 24 23 19 16 16 14 14 15 16 16 15 14 15 12 5 8 16 18 19 21 20 18 17 16 16 16 16 16 18 20 23 26 30 35 37 39 42 43 41 40 42 42 41 39 36 34 36 37 38 37 35 34 33 32 33
6 4 3 4 5 5 6 7 7 7 9 10 9 10 12 12 10 13 13 13 14 13 14 16 17 19 21 23 26 27 27 27 24 21 19 18 16 16 16 15 15 14 15 15 9 8 14 17 17 19 19 16 16 15 16 18 18 18 18 20 23 26 29 34 37 39 42 45 41 39 42 43 42 41 39 35 34 35 36 38 36 35 34 33 34
5 4 4 5 5 6 8 7 5 5 7 10 10 10 13 12 12 14 14 13 13 14 16 18 19 21 22 24 26 27 28 30 29 25 23 22 19 17 17 15 14 14 14 15 14 10 11 16 18 19 18 16 16 16 16 17 18 18 19 21 23 25 28 32 36 39 43 46 42 38 42 45 43 42 40 37 34 32 33 37 38 36 35 34 35
8 6 6 7 7 7 7 5 5 7 9 12 13 13 12 11 12 14 14 12 13 14 16 18 19 21 23 24 25 26 29 31 31 28 27 25 22 19 18 15 13 15 16 17 17 13 10 13 17 19 19 18 17 17 16 16 17 18 19 21 22 24 28 33 36 38 43 46 43 38 40 44 44 43 42 40 37 34 33 34 37 37 35 34 35
10 8 7 8 7 6 5 6 7 10 12 13 14 15 13 11 12 14 14 14 14 14 16 18 19 20 21 24 25 26 29 31 32 31 30 29 23 19 19 17 16 18 19 19 19 16 13 14 16 18 20 19 17 16 15 15 17 18 18 18 20 23 26 33 37 39 41 45 44 40 39 42 45 44 44 42 40 36 33 33 35 37 34 33 34
11 9 8 7 6 6 9 11 12 12 12 12 15 16 15 13 14 15 15 15 15 15 16 18 20 19 20 22 24 26 29 31 33 33 32 32 28 22 22 21 20 19 19 19 20 20 18 16 17 19 21 20 18 16 16 17 17 17 18 17 16 21 25 30 36 38 39 43 44 42 40 41 44 45 44 43 41 37 34 33 35 37 35 33 33
12 10 9 8 7 9 13 15 15 15 14 14 15 17 16 14 14 14 14 15 15 15 17 19 20 20 20 20 21 25 27 28 31 33 33 33 32 29 25 23 22 21 20 20 21 21 20 18 18 20 22 22 21 19 19 19 15 14 18 19 14 13 19 27 33 36 37 39 44 45 43 42 43 45 44 43 40 37 35 34 34 36 36 34 34
13 11 10 9 10 13 15 16 16 16 16 16 15 16 16 15 15 14 14 13 13 14 16 18 19 20 20 20 20 22 25 26 29 32 33 33 33 32 29 25 23 22 20 21 21 22 22 20 20 21 21 22 21 21 22 22 18 16 18 18 16 15 7 14 22 28 34 39 42 45 45 44 42 41 41 40 38 37 36 34 35 36 36 35 35
13 11 11 12 14 17 17 17 17 16 16 16 16 16 16 16 16 15 15 14 14 14 16 17 18 18 18 21 21 20 21 22 25 30 33 33 33 33 31 28 26 23 21 20 19 19 20 20 20 21 21 21 23 24 26 26 23 20 20 17 13 16 15 6 1 9 22 30 31 30 32 35 37 37 37 37 37 37 36 35 36 36 36 36 37
14 13 13 14 17 18 18 17 17 17 17 17 16 16 16 16 15 15 16 17 16 15 16 17 18 16 15 19 21 20 17 17 19 24 29 32 33 34 33 31 28 24 21 19 19 19 19 19 20 21 21 22 24 24 24 25 23 21 20 16 9 15 22 22 19 12 6 13 16 15 15 22 30 33 33 34 35 36 37 37 36 36 37 37 39
15 15 15 16 18 18 18 18 19 19 19 19 17 16 16 15 13 13 14 16 17 16 15 15 15 16 16 16 19 20 17 13 13 16 22 28 31 33 34 34 32 28 23 20 21 20 18 18 20 21 20 21 24 24 23 23 23 20 18 15 11 15 20 23 23 22 19 16 17 16 13 12 21 24 24 27 29 31 35 38 38 38 38 38 40
16 16 17 18 18 17 19 20 20 21 21 21 19 17 16 16 14 14 13 13 14 15 15 15 16 16 16 15 16 20 20 14 11 12 15 20 25 29 31 34 35 34 29 24 22 22 20 19 21 22 21 21 24 25 24 23 21 19 17 18 18 18 19 16 14 16 19 18 20 23 23 14 10 13 12 15 19 21 25 32 36 38 39 40 41
17 17 18 18 18 18 19 20 20 21 21 21 20 19 19 20 19 19 18 16 15 14 14 15 15 15 15 15 17 21 22 16 12 12 14 15 18 23 27 30 33 35 35 31 27 25 24 22 23 24 23 22 24 27 25 21 19 19 21 23 23 22 22 19 14 13 16 19 25 28 28 21 14 10 8 4 5 11 15 21 25 28 32 36 38
19 19 18 18 18 18 18 19 19 18 18 19 20 20 19 19 20 22 22 21 20 19 17 15 15 16 16 18 19 22 23 19 14 15 16 14 13 17 22 25 28 30 33 34 32 29 27 26 26 26 24 23 24 25 23 20 18 20 22 23 24 25 25 22 19 17 17 21 30 33 30 26 24 22 21 18 10 2 3 9 12 14 18 22 24
21 19 18 17 16 16 16 17 17 17 16 17 19 19 18 17 19 22 24 26 26 26 24 22 20 19 19 20 20 21 24 23 17 16 18 16 13 13 16 21 25 27 29 31 33 32 31 30 30 29 29 28 25 23 21 20 20 20 20 21 24 28 28 25 22 21 19 20 28 32 26 23 29 34 32 29 25 21 15 7 3 6 10 15 19
22 21 19 18 15 14 14 14 15 16 16 15 16 18 18 18 19 22 24 27 29 29 29 27 26 24 22 21 21 21 22 23 20 17 16 16 15 14 13 15 19 24 27 28 30 32 32 32 32 32 34 33 28 23 21 21 21 19 19 21 23 27 31 29 27 27 25 22 27 31 22 19 31 40 35 32 35 35 30 25 20 20 23 25 29
21 21 20 18 15 13 12 13 15 16 16 14 16 18 19 20 21 22 23 25 27 28 28 28 28 28 26 25 24 22 21 21 20 18 16 13 14 17 18 15 15 19 23 24 26 29 31 32 31 32 33 32 30 26 23 22 22 20 22 23 23 28 32 29 26 28 29 27 29 35 29 22 31 41 36 34 41 42 38 37 34 32 33 33 33
18 18 17 16 14 13 13 13 15 16 17 16 16 19 20 19 21 23 23 24 25 26 26 27 28 29 29 28 27 25 24 22 20 18 17 16 16 19 22 21 17 17 19 20 22 26 29 31 31 30 30 30 29 28 26 26 25 24 27 25 22 26 29 22 18 22 26 24 25 33 35 26 28 38 38 38 44 43 40 41 41 38 37 35 34
17 15 15 15 15 14 14 14 15 16 18 18 19 21 20 19 22 23 23 24 24 24 25 26 26 27 28 29 28 28 27 25 22 20 19 19 21 22 22 22 20 19 17 18 21 24 27 31 33 32 31 30 29 29 28 27 27 27 29 25 20 24 25 19 17 21 24 22 19 25 30 23 21 29 32 35 40 38 38 41 41 40 39 37 36
19 17 17 17 16 15 15 15 15 16 18 19 20 21 20 19 21 22 22 23 23 23 24 25 25 26 27 27 27 28 28 27 24 22 19 19 21 22 22 22 22 21 18 17 20 24 27 30 33 34 34 32 31 31 29 28 27 27 27 24 22 24 23 19 18 17 14 13 13 20 23 17 14 17 19 22 23 24 31 38 36 35 35 32 32
Wind_Direction
184 189 216 233 244 254 255 277 282 265 261 255 264 283 284 272 275 284 281 268 261 271 279 283 294 281 249 245 255 257 257 258 254 253 265 275 276 276 274 277 279 273 275 272 266 265 258 251 231 224 242 260 263 193 185 215 236 252 244 212 203 191 180 169 169 182 189 186 180 176 173 169 164 153 150 153 151 152 150 143 138 134 133 130 126
194 178 197 215 214 211 221 236 240 241 251 241 243 263 271 263 260 268 272 263 261 267 274 274 282 297 277 260 255 248 251 253 247 246 256 265 269 272 272 273 273 271 268 263 263 263 258 253 237 235 241 236 238 219 191 210 231 242 235 216 213 201 193 187 184 186 188 189 184 182 179 176 175 162 156 156 154 156 154 149 145 139 138 135 130
196 189 194 210 211 204 206 212 214 209 218 227 231 244 253 255 250 256 263 263 265 267 276 280 278 286 291 290 280 258 255 258 254 251 248 255 264 265 267 270 269 271 269 262 260 262 258 251 243 248 243 221 231 236 202 204 223 229 219 214 214 208 203 195 191 200 205 191 184 187 184 180 182 170 163 162 157 158 157 153 150 144 142 139 135
184 196 202 211 218 219 220 221 225 224 227 232 236 245 251 255 254 257 265 267 269 271 281 288 282 280 281 289 299 293 286 277 269 264 254 253 259 262 265 267 267 270 268 262 260 260 258 252 248 250 242 223 222 232 223 208 217 223 219 219 213 208 208 201 198 207 214 201 188 190 186 185 187 179 170 167 163 160 159 157 154 149 145 143 140
184 194 204 211 215 223 230 233 236 236 239 243 248 257 259 260 261 266 274 278 279 283 291 294 286 283 282 282 287 295 298 294 285 278 268 258 256 257 259 262 264 265 263 260 261 262 261 255 251 248 242 232 219 225 227 206 213 223 218 219 214 208 208 208 208 208 214 208 195 190 188 187 191 188 177 171 170 165 161 159 157 153 150 147 145
195 199 210 215 214 223 235 242 247 246 251 257 260 264 267 269 271 278 286 291 291 292 295 296 293 292 291 287 284 287 291 293 291 287 282 270 258 255 257 261 263 262 261 259 260 261 261 258 254 247 241 239 224 218 218 207 215 222 217 220 215 208 207 212 214 212 218 216 201 193 192 187 193 197 187 177 175 171 165 161 160 157 154 153 151
200 203 211 215 217 233 243 248 251 251 260 268 271 272 273 274 281 290 291 292 292 293 295 298 300 298 294 291 288 289 287 287 288 288 288 280 265 257 257 259 260 260 260 259 259 261 262 260 257 249 242 242 230 216 216 215 216 219 218 219 216 211 209 213 218 217 222 220 205 197 195 191 197 205 195 185 179 177 172 166 166 163 161 161 159
190 193 203 210 218 240 252 259 253 257 270 273 278 283 285 286 289 291 291 294 296 298 299 301 304 305 304 298 294 293 288 284 285 285 285 281 273 263 257 257 258 260 261 260 260 260 260 259 258 254 246 243 233 219 218 219 218 220 220 221 220 217 211 213 219 220 220 219 208 199 198 194 196 205 201 190 183 181 177 172 172 168 167 167 161
186 197 210 207 206 230 245 246 245 255 264 263 273 281 288 295 294 291 291 296 300 301 301 301 304 308 311 307 302 299 294 289 286 284 284 280 274 267 261 260 261 261 261 261 261 260 258 256 257 258 252 246 236 224 220 218 218 222 222 222 221 217 216 215 216 220 218 216 209 201 201 194 191 199 203 196 188 186 180 176 177 172 170 166 157
196 208 212 202 201 230 243 232 237 251 260 271 284 286 282 288 291 293 296 298 298 300 303 305 305 305 304 302 300 298 294 291 286 283 281 278 273 269 267 265 264 262 262 261 260 261 261 257 257 258 254 249 240 229 223 219 217 220 221 219 216 216 219 216 217 225 224 217 210 204 201 194 191 197 205 200 191 192 185 179 182 176 169 163 158
203 208 210 207 200 211 241 239 254 263 263 279 293 294 294 295 294 293 298 301 300 301 305 306 305 303 300 298 298 297 294 291 288 284 279 277 274 271 268 266 265 265 265 262 260 262 263 259 257 257 253 250 244 235 229 224 218 219 222 220 216 215 216 215 221 230 231 223 213 208 202 197 195 195 204 205 194 196 192 182 183 180 173 169 169
198 210 220 211 197 196 243 245 257 269 267 279 293 301 305 308 310 308 308 308 307 308 311 310 306 302 300 299 299 299 298 295 291 286 282 278 275 271 267 266 266 268 269 266 263 262 260 257 255 257 255 252 247 240 234 229 222 219 221 221 216 216 217 217 222 228 229 226 218 211 204 200 198 195 203 208 198 197 194 187 184 183 182 178 180
198 219 233 211 199 206 253 239 245 269 277 276 285 292 293 297 304 308 311 312 313 314 317 317 312 307 307 307 306 304 300 299 297 291 286 280 275 270 268 266 263 265 269 267 266 264 258 256 257 258 256 253 249 244 238 231 226 221 221 222 218 217 219 217 221 226 225 225 222 215 205 199 201 199 205 207 200 197 193 191 188 184 187 184 183
206 221 230 201 197 215 259 267 257 265 279 278 281 289 295 302 306 308 309 313 315 316 323 326 322 318 317 311 312 316 313 311 306 300 302 295 282 274 271 267 258 258 267 263 261 263 261 260 261 258 254 251 249 248 243 234 228 225 224 222 219 220 222 219 220 224 224 222 220 218 208 200 203 203 206 208 203 197 194 194 192 189 191 188 186
207 217 222 199 204 222 246 281 274 274 294 302 309 322 328 330 333 330 323 321 322 327 338 341 331 323 320 303 310 325 321 323 317 305 317 316 295 280 276 275 265 257 268 267 262 264 266 265 259 256 256 253 247 248 247 240 231 228 225 221 220 221 221 221 219 220 224 223 218 218 211 201 204 205 205 208 206 200 196 195 195 194 193 190 188
201 210 219 209 216 227 237 266 288 309 323 332 339 341 341 342 349 352 344 338 337 341 348 351 344 334 322 282 295 307 299 330 319 305 311 316 301 295 290 288 283 266 264 274 278 277 271 265 259 254 254 252 247 246 248 245 237 232 227 223 222 221 219 219 220 220 223 224 219 214 210 205 205 208 207 206 208 205 198 195 196 197 193 189 189
195 203 209 188 179 197 226 256 289 347 347 345 340 334 337 343 349 351 350 351 349 345 347 351 348 339 325 296 296 292 262 313 317 306 311 313 308 307 303 299 297 290 271 268 284 289 275 262 259 255 250 247 245 244 245 245 241 234 228 227 226 222 219 219 221 223 220 225 223 210 209 214 210 211 210 206 208 206 198 194 196 197 193 190 190
182 187 191 183 185 200 222 278 338 21 6 352 348 345 343 345 344 341 341 346 347 346 344 342 341 338 336 324 303 283 275 295 318 306 312 313 309 307 306 306 306 302 293 274 277 285 279 269 261 254 250 248 246 243 242 242 240 235 229 230 229 222 219 219 220 222 218 224 226 211 208 217 217 217 212 206 208 203 196 195 195 195 193 192 191
183 180 183 200 221 228 242 346 353 357 357 354 357 356 348 344 343 341 342 345 346 346 344 341 339 334 332 327 316 305 284 273 278 289 312 312 305 304 306 310 311 307 304 295 281 274 273 273 266 255 251 251 248 244 241 239 238 237 234 233 232 225 220 219 218 218 216 223 227 215 207 212 219 223 214 207 208 201 197 198 196 195 192 192 191
178 179 168 171 133 112 114 49 24 9 359 356 359 356 353 351 349 348 348 349 351 349 345 341 335 326 326 325 323 321 306 290 282 270 280 302 304 306 308 312 312 309 308 304 296 282 270 272 274 269 259 250 247 243 240 239 236 236 236 234 231 224 218 218 219 219 216 220 225 218 208 209 217 221 215 209 207 203 200 200 199 196 192 192 190
149 153 145 152 142 133 134 76 38 23 9 359 355 347 348 354 356 356 353 351 351 346 340 335 329 325 327 326 324 322 318 315 298 267 261 280 293 305 311 314 313 312 311 309 308 300 282 275 277 276 268 257 250 244 239 239 237 235 235 235 230 221 216 216 218 222 218 214 221 222 210 207 213 214 210 207 205 202 200 199 198 195 193 192 185
150 157 158 169 175 206 274 9 10 14 9 358 353 347 347 349 350 351 350 349 345 339 337 334 328 324 325 322 318 317 317 317 301 286 287 277 274 288 299 306 309 310 312 313 314 311 298 285 275 266 264 261 255 246 241 241 240 235 233 233 230 224 222 219 216 220 218 210 216 222 211 206 212 210 205 204 203 200 198 197 195 192 192 186 178
158 165 161 173 235 319 325 330 341 357 0 357 355 351 350 350 350 351 351 351 347 342 339 335 329 326 327 324 317 315 311 301 294 295 291 270 281 291 289 293 294 297 307 314 315 311 305 296 284 269 260 256 253 248 244 243 240 234 231 232 230 227 226 223 217 217 217 210 212 218 212 207 211 207 200 200 200 198 197 194 192 191 187 179 176
152 149 133 96 13 3 354 355 7 7 3 360 356 354 354 355 358 357 356 356 351 347 343 340 336 332 333 333 326 321 313 305 304 298 285 282 286 283 288 297 294 289 302 311 314 314 309 301 295 284 269 258 255 251 246 242 239 236 234 234 233 230 226 223 220 217 215 210 210 214 211 206 208 203 197 198 199 197 195 191 190 189 182 177 180
134 114 89 56 20 19 25 22 19 11 359 352 352 353 355 358 2 4 8 9 4 1 357 352 349 343 339 337 332 330 322 316 317 307 296 292 285 278 291 296 290 292 303 305 308 315 313 308 304 294 279 267 262 258 252 249 247 245 243 239 236 231 226 223 222 219 214 208 208 211 208 206 208 204 198 199 199 196 194 190 189 188 182 181 185
109 94 76 47 21 25 29 13 15 11 352 343 345 347 352 356 1 7 13 13 12 12 8 5 5 2 356 351 347 351 349 340 333 319 308 299 288 285 291 293 286 288 297 298 302 309 310 313 313 302 286 276 270 264 261 259 254 250 248 243 236 230 226 225 223 221 215 209 207 208 207 206 209 206 200 200 200 196 194 192 190 189 186 187 188
95 82 60 36 26 22 346 336 358 2 352 349 348 350 359 4 6 14 16 16 18 20 23 28 30 30 28 22 14 12 9 2 355 344 330 317 306 299 296 297 294 289 292 295 299 303 306 310 310 303 296 288 280 270 265 263 255 250 250 247 241 234 231 227 223 220 218 212 208 207 206 205 208 208 202 200 200 197 194 193 192 192 191 190 190
96 77 57 36 26 12 355 1 7 356 354 358 0 5 14 16 20 26 25 25 30 35 42 45 40 37 35 28 19 10 5 3 1 356 349 342 333 320 309 301 297 303 307 299 300 312 315 311 302 302 305 299 297 291 275 265 257 252 252 251 246 240 234 227 222 221 219 214 210 208 206 204 206 210 205 200 200 198 196 195 194 194 194 192 190
89 72 63 39 23 23 30 49 47 16 8 10 16 25 28 30 33 35 30 32 41 46 48 43 34 32 29 24 20 11 5 4 2 359 356 351 348 340 328 314 303 298 299 307 307 310 314 310 297 294 304 303 304 305 291 275 265 256 250 248 244 239 234 226 222 222 220 215 210 209 207 203 205 210 208 202 200 199 199 198 198 197 195 193 190
77 72 80 81 84 88 77 64 47 28 24 29 41 47 43 43 42 39 36 41 49 51 46 37 29 29 27 24 22 17 11 7 0 357 356 353 352 350 346 338 323 308 296 302 302 296 305 308 299 295 301 302 300 301 297 286 276 266 258 254 247 240 236 229 225 224 222 216 211 209 209 205 204 209 210 205 201 201 201 200 200 199 197 194 191
107 118 112 102 94 83 56 44 41 42 42 46 59 59 51 48 46 44 44 47 50 48 40 32 28 29 29 28 26 23 17 11 5 2 359 356 359 359 354 351 345 332 318 308 292 300 308 306 304 305 305 301 300 299 294 286 280 276 271 267 261 252 242 233 228 227 224 218 210 208 209 206 204 207 210 208 204 201 201 201 201 200 199 196 191
124 139 127 95 80 62 52 56 61 68 68 67 68 63 56 53 48 47 50 52 51 47 39 33 33 34 35 35 32 27 22 18 14 13 12 11 10 3 355 350 349 347 336 323 297 298 313 313 311 315 318 309 299 292 287 286 284 278 272 271 270 263 252 241 234 230 226 221 212 206 208 207 204 206 210 212 210 205 200 200 201 200 200 198 192
123 131 132 98 75 69 80 87 87 85 81 78 74 66 64 63 57 55 59 60 58 55 47 42 43 43 42 40 35 29 27 26 23 19 16 15 10 360 355 353 346 344 342 333 317 302 318 326 326 328 331 319 301 293 294 296 293 285 278 277 272 264 255 246 238 231 226 222 213 206 207 208 206 206 208 213 215 212 204 200 201 202 202 199 194
124 117 119 100 84 94 103 104 109 102 85 80 78 72 69 67 64 63 62 61 62 61 53 49 49 47 45 42 37 32 31 30 29 25 21 19 14 2 359 359 348 345 350 343 330 313 315 331 339 342 343 330 312 310 311 308 304 298 288 283 276 266 255 246 239 233 225 219 213 207 205 208 209 207 208 211 215 218 213 205 202 202 203 202 197
124 111 112 105 99 110 116 111 113 111 99 88 81 74 70 70 70 68 66 65 68 66 57 51 50 48 47 45 39 36 35 33 30 29 27 24 20 10 4 2 356 357 3 357 346 333 324 339 350 353 351 344 333 330 327 319 317 314 302 288 279 269 256 243 236 233 224 215 211 208 205 208 210 209 209 211 213 218 221 212 204 203 204 203 200
122 107 110 117 115 117 110 96 102 108 106 98 89 79 73 74 78 77 75 74 73 70 62 55 51 50 50 48 44 41 41 37 33 30 29 27 21 14 11 12 11 9 8 7 6 2 357 355 356 359 1 359 354 351 344 333 330 332 325 304 285 273 256 238 230 227 222 215 211 208 205 207 210 210 210 211 213 216 220 216 207 205 205 204 203
121 109 113 124 130 119 100 93 95 100 105 104 96 87 80 80 85 86 83 79 76 73 67 59 55 54 53 52 48 45 43 41 36 31 31 31 27 23 24 24 24 21 15 15 19 19 18 11 359 360 7 6 3 6 4 351 343 344 345 335 305 277 254 233 225 224 222 217 212 208 206 206 210 212 211 211 213 215 218 217 211 206 204 203 204
126 124 121 121 125 116 103 97 94 95 101 104 99 93 88 85 85 86 85 81 79 76 69 62 58 55 54 54 51 45 45 45 41 35 34 35 32 30 32 31 31 30 24 23 24 22 21 16 5 3 6 4 3 7 9 5 358 351 352 354 341 294 250 224 218 220 221 218 213 210 208 206 208 213 213 212 213 214 217 217 213 208 204 203 204
132 135 128 117 114 111 106 103 99 97 100 102 101 97 94 90 85 84 85 85 86 80 71 64 60 56 53 53 52 47 46 48 46 41 38 38 37 34 33 34 36 35 28 24 24 22 19 15 9 4 1 1 3 3 6 12 12 7 1 354 355 355 314 225 214 216 218 218 216 213 209 205 206 210 213 213 214 215 218 219 216 212 208 205 203
124 124 124 118 113 109 108 104 101 101 103 105 106 102 99 96 90 83 81 86 91 89 77 66 61 58 54 52 50 48 47 48 49 46 42 41 42 39 36 38 41 39 32 26 24 22 19 14 9 4 1 2 3 2 6 11 5 360 359 349 355 30 44 59 143 219 217 213 209 206 204 204 205 207 211 214 216 218 221 222 220 216 212 208 205
116 115 116 116 115 111 106 100 96 98 102 105 109 107 102 98 91 84 83 85 89 91 83 71 63 61 58 51 45 44 47 50 50 49 45 44 45 44 42 42 43 42 38 31 27 21 17 14 9 4 2 3 3 360 359 0 353 347 351 354 19 62 67 66 60 61 137 166 159 155 171 190 198 203 209 213 216 220 222 223 224 222 217 212 208
123 123 118 117 115 108 101 96 93 94 95 96 100 104 104 101 98 96 92 89 89 88 84 76 68 63 60 53 43 39 45 53 54 50 48 47 49 50 48 47 47 46 41 35 30 24 20 17 10 6 4 1 2 1 355 356 0 2 6 19 49 69 67 64 65 68 79 100 107 95 96 155 184 192 202 211 217 221 221 222 224 224 222 218 212
124 122 119 117 113 105 99 97 95 95 96 95 96 97 99 98 98 99 96 94 94 90 83 77 72 67 62 55 47 43 44 52 57 53 52 50 51 54 53 51 51 50 47 42 34 28 25 20 15 13 8 0 4 10 8 10 20 26 34 50 62 66 64 59 56 60 68 87 95 78 65 78 140 165 180 204 220 229 229 224 223 223 223 222 217
120 114 117 117 110 104 102 100 98 98 100 102 100 94 89 86 86 86 86 87 89 86 83 78 72 69 64 56 53 49 48 56 65 62 60 57 53 56 59 57 54 52 51 49 44 37 32 27 23 19 12 6 11 19 20 24 36 44 52 61 65 66 67 65 60 55 61 83 91 77 61 62 84 104 98 105 215 238 243 234 227 224 222 219 215
118 110 112 114 108 104 103 102 100 100 102 106 106 98 89 83 80 79 78 78 78 77 76 75 71 68 64 58 55 51 51 62 79 74 67 66 58 55 60 60 58 54 52 49 49 47 42 38 34 28 24 23 25 29 33 37 45 53 57 63 69 71 69 65 65 67 71 85 87 75 59 58 73 79 70 64 72 92 259 247 234 227 221 211 200
118 110 107 109 108 105 104 103 101 98 99 106 111 106 98 89 80 77 77 76 75 73 70 69 67 65 61 57 56 52 52 61 75 77 69 65 61 54 55 59 60 58 54 49 49 49 48 47 43 37 38 41 40 43 48 49 51 58 64 69 74 77 75 71 71 75 78 86 90 80 61 52 69 73 65 65 75 79 73 72 130 164 174 173 158
116 113 108 108 109 107 106 105 101 94 92 103 116 114 107 98 86 80 77 74 73 72 70 68 66 64 63 61 58 55 54 56 64 73 69 58 51 46 45 53 58 58 56 52 49 50 50 51 50 47 48 50 51 53 58 62 62 66 75 79 82 86 84 76 70 69 70 75 89 91 74 54 71 74 64 65 78 83 84 90 99 111 122 131 133
115 114 112 110 112 113 112 107 101 92 87 99 119 121 112 101 91 86 80 74 73 72 70 67 66 64 63 63 62 60 58 56 59 66 67 55 46 45 49 58 63 59 57 55 52 52 53 53 55 55 55 55 57 58 63 71 71 74 82 81 80 84 83 74 65 63 64 66 80 91 86 67 72 77 70 67 76 79 82 92 101 109 114 118 120
117 114 112 113 115 115 112 106 99 92 85 91 114 124 117 103 94 90 84 77 74 74 72 69 67 65 63 62 63 62 60 58 57 60 63 60 56 56 59 64 68 65 62 60 56 53 54 55 55 57 58 59 60 60 62 68 72 77 78 70 66 77 81 76 68 65 66 67 73 85 86 75 74 80 76 71 74 74 76 84 93 99 103 105 108
118 117 119 119 115 112 108 103 98 92 86 90 108 119 116 106 96 91 86 79 76 76 76 73 70 68 65 63 61 60 58 57 56 59 62 61 61 62 62 62 64 64 63 64 61 55 54 56 55 55 57 58 61 61 61 64 68 73 74 68 67 76 78 78 81 78 75 71 70 81 86 82 79 82 80 75 71 69 75 82 86 89 91 93 96
117 116 118 116 111 107 106 103 101 95 89 93 106 113 112 107 102 97 92 86 81 78 77 75 72 69 66 63 60 59 58 56 55 57 61 64 65 66 65 64 63 61 60 63 64 59 56 57 56 55 55 56 60 63 63 63 66 69 73 74 75 75 73 74 82 86 77 62 68 88 93 88 84 85 87 86 75 64 74 83 85 86 89 91 92
Height
826 826 827 827 828 828 829 830 830 830 831 831 831 831 831 831 831 831 831 831 831 831 831 831 831 830 830 830 830 830 830 831 831 832 831 831 831 831 831 831 831 831 831 831 830 830 830 830 831 831 830 830 830 830 832 833 832 832 832 832 832 833 833 834 834 834 835 834 835 835 835 835 835 835 836 836 836 837 837 837 837 836 837 837 837
825 826 827 827 828 828 829 830 830 831 831 831 831 832 832 832 832 832 831 831 831 831 831 830 830 830 830 830 830 829 829 830 830 831 830 830 830 830 830 830 830 830 830 830 829 829 829 829 829 829 829 829 829 829 830 831 831 831 832 832 832 833 833 833 834 834 834 834 834 834 834 835 835 835 836 836 836 837 837 837 837 837 837 837 838
825 826 826 827 828 828 829 829 830 831 831 831 832 832 832 832 831 831 831 831 831 830 830 830 829 829 829 829 829 829 829 829 829 830 830 829 829 829 829 829 829 829 828 828 828 828 828 828 828 828 828 829 828 828 829 830 830 830 831 831 831 832 833 833 833 834 834 834 834 834 834 834 835 835 836 836 836 836 837 837 837 837 837 838 838
824 825 825 826 827 827 828 829 830 830 830 831 831 831 831 831 831 831 831 830 830 830 830 829 829 829 828 828 828 829 829 829 829 829 829 828 828 828 828 828 827 827 827 827 827 827 827 827 826 827 827 828 828 827 827 828 829 830 830 830 830 831 832 832 833 833 833 834 834 834 834 834 834 835 835 836 836 836 837 837 837 837 838 838 838
823 824 825 825 826 827 828 829 829 830 830 830 831 831 831 831 831 831 831 830 830 830 829 829 828 828 828 828 827 828 828 828 828 827 828 827 827 827 826 826 826 825 825 825 825 825 825 825 825 825 826 827 827 826 826 827 828 828 829 829 829 830 831 832 832 832 833 833 834 834 834 834 834 835 835 836 836 836 836 837 837 838 838 839 839
823 824 824 825 826 827 828 828 829 829 830 830 830 830 830 830 831 831 831 830 830 830 829 828 828 828 827 827 827 827 827 826 826 826 826 826 825 825 824 824 824 824 824 824 824 824 824 824 824 824 824 825 826 825 825 826 826 826 827 828 828 829 829 830 831 831 832 832 833 833 834 834 834 834 835 835 836 836 836 837 838 838 838 839 839
823 824 824 825 826 826 827 828 828 829 829 829 830 830 830 830 830 831 831 830 830 829 829 828 827 827 827 827 826 826 826 825 825 824 824 824 824 823 823 822 822 822 822 822 822 822 823 823 823 823 823 823 824 824 824 824 825 825 825 826 827 827 828 829 830 830 831 831 832 833 833 834 834 834 834 835 836 836 836 837 837 838 839 839 839
823 824 824 824 825 826 826 827 828 828 829 829 829 829 829 830 830 831 831 830 830 829 829 828 827 827 826 826 825 825 824 824 823 823 822 822 821 821 821 820 819 819 819 819 820 820 821 821 821 821 821 822 822 823 823 823 823 823 824 825 825 826 826 827 828 829 830 830 831 832 833 833 833 834 834 835 835 836 836 837 837 838 838 839 839
823 824 824 824 825 825 826 827 827 828 828 829 829 829 829 829 830 830 830 830 830 829 828 828 827 826 825 825 824 824 823 822 822 821 821 820 819 819 819 818 817 817 817 817 817 817 818 819 819 820 820 820 820 821 821 821 821 822 822 823 824 825 825 826 827 828 829 829 830 831 832 832 833 833 833 834 835 835 836 836 837 838 838 839 839
824 824 824 824 825 825 826 826 827 827 828 829 829 829 829 829 829 830 830 830 829 829 828 827 826 825 825 824 823 822 822 821 820 819 819 818 817 817 816 816 815 815 814 814 815 815 816 816 817 817 817 818 818 819 819 819 820 820 821 821 822 823 824 825 825 826 827 828 829 830 831 831 832 833 833 833 834 835 835 836 837 837 838 839 839
824 824 824 824 824 825 825 826 826 827 827 828 828 828 829 829 829 829 829 829 828 828 828 827 826 825 824 823 822 821 820 819 818 817 816 815 814 814 813 813 813 813 813 812 813 813 812 813 814 814 814 815 816 817 817 817 818 819 819 819 821 822 823 824 824 825 826 827 828 828 829 830 831 832 832 833 833 834 835 835 836 837 838 838 839
824 825 824 824 824 824 825 825 826 826 827 827 828 828 828 828 828 828 828 828 828 827 827 826 825 824 822 821 820 819 818 817 815 814 813 812 811 810 810 810 811 811 811 811 811 810 810 810 810 811 811 812 813 814 815 816 816 817 817 818 819 820 821 822 823 824 825 826 826 827 828 829 830 831 832 832 833 833 834 835 835 836 837 838 839
825 825 824 824 824 824 825 825 826 826 826 827 827 828 828 828 828 828 827 827 827 827 827 826 824 823 821 819 818 817 816 814 813 811 810 809 808 807 807 807 809 810 810 809 809 808 807 808 807 808 808 809 810 811 813 813 814 815 815 816 817 818 819 820 822 823 823 824 825 826 827 828 829 830 831 831 832 832 833 834 835 836 837 837 838
825 824 824 824 824 824 824 825 825 826 826 826 827 827 827 828 827 827 827 826 826 826 826 825 825 823 821 819 816 814 813 812 810 809 807 806 805 805 805 804 805 808 809 807 807 806 805 805 805 805 805 806 807 808 809 810 811 812 813 814 815 816 817 818 820 821 822 823 824 825 825 827 828 828 830 830 831 832 832 833 834 835 836 837 838
824 824 824 824 824 824 824 825 825 825 826 826 826 827 827 827 827 826 826 826 826 826 826 825 825 824 822 821 818 815 813 811 809 807 806 805 804 803 802 802 803 805 807 805 805 804 803 803 803 803 803 803 803 804 806 807 808 809 810 812 813 814 815 817 818 819 820 821 822 823 824 826 827 827 828 829 830 831 831 833 833 834 835 836 837
824 824 824 823 823 824 824 824 824 825 825 825 826 826 827 826 827 826 825 826 825 826 826 825 825 823 823 822 819 818 817 813 809 806 805 804 803 802 802 802 802 803 805 805 803 801 801 800 800 800 800 800 801 802 803 804 805 807 808 809 810 812 813 815 816 817 818 819 820 822 823 824 825 826 827 828 829 830 830 831 832 833 834 836 837
823 823 823 823 823 823 824 824 824 824 824 825 825 826 826 826 826 826 825 825 825 825 825 825 825 823 823 822 820 820 818 814 811 807 805 805 803 802 801 801 802 802 803 803 801 799 798 797 797 797 797 797 798 799 801 801 802 804 805 806 807 809 810 812 814 815 816 817 818 820 821 822 824 825 826 827 828 828 829 830 831 832 834 835 836
822 823 823 822 823 823 823 823 823 824 824 824 825 825 826 826 825 825 825 825 824 824 824 824 824 823 822 821 820 820 817 814 814 809 805 803 802 801 800 799 801 801 801 801 800 798 796 795 795 795 795 796 796 797 798 798 799 801 802 803 804 805 807 809 811 813 814 815 816 817 819 821 822 823 824 825 826 827 828 829 830 831 833 834 835
821 822 822 821 822 822 822 823 823 823 823 824 824 825 825 825 825 824 824 824 823 823 823 823 822 821 820 819 818 817 815 814 814 812 807 803 799 799 798 797 798 799 799 799 799 797 795 794 793 793 793 794 794 794 795 796 797 798 799 800 801 802 804 806 808 810 812 813 814 815 818 819 820 821 823 824 825 826 827 828 829 830 831 833 835
821 821 821 821 821 822 822 822 822 823 823 823 824 824 824 824 824 824 823 823 823 822 822 822 821 819 818 817 816 815 814 813 812 812 810 806 800 797 796 796 795 795 795 796 797 796 794 792 791 790 791 791 790 791 792 793 794 795 796 797 798 799 800 802 805 807 809 811 812 813 815 817 818 819 821 822 823 824 825 827 828 829 830 832 833
820 820 820 820 820 821 821 822 822 822 823 823 823 823 824 824 823 823 823 822 822 822 821 821 820 819 817 815 814 813 812 812 810 809 809 808 803 798 796 795 793 791 792 792 793 793 792 791 789 788 788 788 788 788 789 790 791 792 793 794 795 796 797 799 801 804 806 808 810 811 813 815 816 818 819 820 822 823 824 825 826 828 829 830 832
820 819 818 819 819 820 821 821 822 822 822 823 823 823 823 823 823 822 822 822 822 821 820 820 819 818 817 815 814 812 811 810 809 808 807 806 804 800 797 796 793 789 788 789 789 789 789 789 788 787 786 786 786 787 787 787 788 789 790 791 792 793 795 796 798 801 803 805 808 809 811 813 815 816 818 819 820 821 822 824 825 826 827 829 831
819 818 817 818 818 820 820 821 821 822 822 822 823 823 823 822 822 821 821 821 821 820 819 819 818 817 816 815 813 812 811 809 808 807 806 805 803 800 797 796 794 790 787 787 786 786 786 785 785 784 784 784 784 783 783 784 785 785 787 789 790 790 792 794 795 797 800 802 804 807 809 811 813 815 816 817 819 820 821 822 823 825 826 827 829
818 817 817 817 818 819 820 821 821 821 822 822 822 822 822 822 821 821 821 820 820 819 818 817 816 815 814 813 812 811 810 808 807 806 805 803 802 799 796 794 793 790 787 786 784 783 783 782 781 781 781 781 781 780 780 780 781 782 784 785 787 788 790 792 793 794 796 798 801 803 806 808 810 812 814 815 817 818 820 821 822 824 825 826 828
817 817 816 817 818 819 820 820 821 821 821 821 821 821 821 821 821 821 820 820 819 818 817 816 815 814 813 811 811 809 808 807 805 804 803 802 800 798 795 793 792 789 787 785 784 782 780 779 779 779 779 779 778 778 778 777 778 779 780 781 783 785 787 789 791 791 793 795 797 800 802 805 808 810 812 813 815 817 818 820 821 823 824 825 827
817 816 817 817 818 819 820 820 821 821 820 820 821 821 821 821 821 820 820 819 819 818 817 815 814 813 812 810 809 808 807 806 804 803 801 800 798 796 794 792 790 788 786 784 783 781 779 778 778 777 777 776 775 775 775 775 776 776 777 778 780 782 783 785 787 789 790 792 794 797 799 802 805 807 810 812 813 815 817 818 820 821 823 824 826
817 817 817 817 818 819 820 821 821 821 820 820 820 820 820 820 820 820 819 819 818 817 816 815 814 812 811 810 809 807 806 805 803 802 801 799 797 796 794 791 789 787 784 782 781 781 779 777 776 776 775 774 774 774 773 773 774 774 775 776 777 778 779 781 784 786 789 790 792 794 796 799 802 805 808 809 811 813 814 816 818 820 822 823 825
817 817 817 817 819 819 820 821 821 820 820 820 820 820 820 820 820 819 819 818 817 817 815 814 814 812 811 809 808 806 805 803 802 801 800 798 797 795 793 792 790 787 784 782 780 779 778 777 776 774 773 773 772 772 772 772 772 773 773 773 773 774 776 779 781 783 785 787 789 790 793 796 798 802 805 807 809 811 813 814 816 818 820 822 823
817 817 817 819 819 820 820 820 820 820 820 820 820 820 820 820 819 819 818 818 817 816 815 815 814 812 811 809 807 806 804 802 801 800 799 797 796 794 793 791 790 788 786 783 780 778 777 777 775 773 772 772 771 771 770 770 770 771 771 771 770 771 773 775 777 779 780 783 785 787 790 792 795 799 802 804 807 809 811 812 814 817 819 820 822
817 817 818 819 819 820 820 820 820 820 820 820 820 820 820 819 819 819 818 818 817 816 815 814 813 812 811 809 807 805 803 802 800 799 797 796 795 793 792 791 789 788 786 784 780 778 777 776 775 773 772 771 770 769 769 768 769 769 769 768 769 769 770 771 773 774 775 778 781 784 786 789 792 795 798 801 804 806 808 810 812 815 817 819 821
817 818 819 819 819 820 820 820 820 821 821 821 821 821 820 819 819 819 818 818 817 816 815 815 814 812 810 809 807 805 803 801 799 797 796 795 794 792 791 790 789 787 786 784 781 778 777 776 774 773 772 770 769 768 767 767 767 767 766 766 765 766 767 768 769 770 771 774 777 780 783 786 789 792 795 798 801 803 805 807 810 813 815 817 819
817 818 819 819 820 820 820 821 821 821 821 821 821 820 820 819 819 819 818 818 817 816 816 815 814 812 811 809 807 805 803 801 798 796 795 794 793 792 790 789 788 787 785 784 781 778 777 776 774 772 770 769 767 767 766 765 765 765 764 763 763 762 763 763 765 766 768 769 773 776 780 783 786 788 791 793 796 799 801 804 807 809 812 815 817
817 818 819 820 820 821 821 821 821 821 821 821 820 820 820 819 819 819 819 818 817 817 816 815 814 813 811 810 808 806 804 801 798 796 794 793 792 791 790 788 787 786 785 783 781 778 775 775 773 771 769 768 766 765 765 764 763 762 762 761 760 760 759 759 761 763 764 766 770 774 777 780 782 785 788 790 792 795 798 801 803 806 809 812 814
817 819 820 821 821 821 821 821 821 821 821 821 820 820 820 820 820 820 819 819 818 818 817 816 815 814 812 810 809 807 805 802 799 797 795 793 792 790 789 788 787 786 785 783 781 778 775 773 772 770 768 767 765 764 763 762 761 760 759 757 757 756 756 756 756 758 761 763 767 770 773 776 779 782 785 787 790 793 795 797 800 803 806 809 811
818 820 821 821 821 821 820 821 821 821 821 821 820 820 820 820 820 820 820 819 819 818 817 817 816 815 813 812 810 808 806 803 800 799 797 794 793 791 789 788 787 785 784 783 781 778 775 773 772 770 768 766 765 763 763 761 760 758 756 754 753 752 752 752 752 754 756 760 763 766 769 772 775 779 782 785 787 790 792 795 798 801 803 806 808
819 820 821 821 821 821 821 822 822 821 821 820 820 820 820 821 821 821 820 820 819 818 818 817 816 815 814 812 811 809 807 804 802 800 798 795 793 792 790 789 787 786 784 783 781 779 776 774 773 771 768 766 764 763 761 760 758 756 754 751 750 749 748 748 748 750 752 756 760 763 766 769 772 775 778 781 784 787 789 793 797 799 801 804 806
819 820 820 821 821 822 822 822 822 821 821 820 820 820 821 821 821 821 820 820 819 819 818 818 817 816 815 813 812 811 808 805 803 801 799 797 795 793 792 790 788 786 785 783 781 779 777 776 774 771 768 766 763 762 760 758 756 754 752 749 747 746 746 745 746 747 750 753 756 760 763 766 769 772 775 778 781 784 787 790 793 796 799 801 804
819 820 820 821 822 823 823 823 822 821 821 820 820 821 821 822 822 821 821 820 819 819 819 818 817 816 815 814 813 812 809 807 806 804 802 799 797 795 793 791 789 787 786 784 782 780 779 777 775 772 769 767 764 762 760 758 756 754 751 749 746 745 744 744 745 746 748 751 754 756 759 762 766 769 772 775 779 782 785 787 790 792 795 798 801
819 820 821 822 823 824 824 823 822 821 821 821 821 822 822 822 822 821 821 820 820 820 819 819 818 817 816 815 814 812 811 809 808 806 804 802 800 798 796 794 791 789 788 786 784 782 780 778 777 774 771 769 766 763 760 758 756 754 752 749 747 746 745 745 745 746 747 749 751 753 756 759 763 768 772 775 778 781 783 786 788 790 792 795 798
819 820 821 823 824 824 824 823 822 822 821 821 822 823 823 823 822 822 821 821 820 820 820 819 818 818 817 816 814 813 812 811 810 808 807 805 803 801 799 796 794 792 790 788 786 785 783 781 778 776 773 770 767 764 760 757 755 754 752 751 750 748 746 746 746 747 747 748 750 753 756 759 763 768 772 775 778 780 781 783 785 787 789 792 795
820 821 822 823 824 824 823 823 822 822 822 822 823 823 823 823 822 822 821 821 820 820 820 820 819 818 817 816 815 814 813 813 812 810 809 807 805 803 801 799 796 794 793 791 789 787 785 783 780 778 775 772 768 765 762 759 758 756 753 752 751 750 748 746 747 749 750 750 751 753 756 759 763 768 772 774 776 778 780 781 783 785 787 788 791
821 822 823 824 824 824 823 823 823 823 823 824 824 824 823 823 822 822 821 821 821 820 820 820 819 819 818 817 816 815 814 813 813 812 811 809 808 806 804 802 799 797 795 794 792 790 788 786 783 780 777 774 771 769 766 763 761 758 755 753 753 752 751 749 750 753 754 755 754 755 757 760 763 767 771 773 774 775 777 778 780 782 784 785 787
822 822 823 824 824 824 824 823 824 824 824 825 825 824 824 823 822 822 821 821 821 821 820 820 819 819 819 818 817 816 815 814 813 813 812 811 810 809 807 804 802 800 798 797 795 793 791 789 786 783 780 778 774 771 769 766 763 760 758 756 755 754 754 754 756 758 758 759 757 758 761 764 765 767 769 771 772 773 774 775 777 780 781 783 785
822 822 823 823 823 824 824 825 825 825 826 826 826 825 824 823 823 822 822 822 821 821 821 820 819 819 819 818 818 816 815 814 814 814 813 812 812 811 809 807 805 803 801 800 798 796 794 792 789 786 783 780 777 773 771 768 766 764 761 759 758 758 758 760 762 763 764 762 759 760 765 768 768 768 769 771 772 773 773 774 776 778 780 781 783
822 822 823 823 824 825 825 826 826 826 826 826 826 825 825 824 824 823 823 823 822 822 821 821 821 820 819 819 818 817 816 815 815 815 814 813 813 812 811 809 807 806 804 803 801 799 797 794 791 789 786 783 780 777 774 772 769 767 765 764 763 762 762 764 766 767 768 766 762 764 770 772 771 770 772 773 774 773 774 775 775 777 779 781 784
822 822 823 824 825 826 827 827 827 827 827 826 826 826 825 825 825 824 824 823 823 823 822 822 822 821 821 820 819 818 818 816 816 816 815 815 814 814 813 811 810 808 807 805 804 801 799 797 794 792 789 786 783 780 778 775 773 771 770 769 768 766 766 768 770 769 769 769 766 766 774 779 776 773 775 778 776 775 775 776 776 776 779 782 787
821 822 824 825 826 827 828 828 828 827 826 826 826 826 826 826 826 825 825 825 824 824 824 823 823 822 822 821 820 820 819 818 818 817 817 817 816 815 814 813 812 811 809 808 806 804 802 800 798 796 793 789 786 783 781 778 776 775 774 773 772 771 769 771 772 772 772 772 769 768 776 784 780 776 781 784 779 777 780 781 780 781 782 785 790
822 823 824 825 826 828 828 829 828 827 827 827 827 827 827 827 826 826 826 826 826 825 825 825 824 824 823 823 822 821 821 820 820 819 818 818 817 816 814 814 814 813 811 811 809 807 805 803 801 798 796 793 789 786 784 781 780 780 778 776 776 774 771 773 776 777 777 778 776 773 778 787 784 781 787 790 784 783 787 787 787 788 789 791 795
822 823 825 826 827 828 828 828 828 827 827 827 827 827 827 827 827 827 827 827 827 827 826 826 826 825 825 824 824 823 822 822 821 821 820 819 818 817 816 815 815 814 814 813 812 810 808 805 803 800 797 795 792 789 787 785 783 782 779 779 780 778 775 778 781 783 784 785 785 780 780 788 790 787 790 793 790 791 794 795 795 796 796 798 802
822 824 825 827 828 828 828 828 828 828 828 828 828 828 828 828 828 828 828 828 828 828 828 828 828 827 827 826 826 825 824 824 823 822 822 821 820 819 818 817 816 816 815 815 814 812 810 807 805 802 799 797 795 792 791 789 787 784 782 783 785 783 782 783 786 788 789 790 791 787 785 792 795 793 793 795 796 800 802 802 802 803 803 806 809
823 825 826 827 828 828 829 829 829 829 829 829 829 829 829 829 829 829 829 829 830 830 830 830 829 829 828 828 827 827 826 826 825 824 823 823 821 821 820 819 818 817 817 817 816 814 812 809 807 805 802 801 799 796 795 793 791 790 788 788 789 787 787 789 789 790 792 794 795 792 790 795 797 796 796 796 801 809 810 808 809 810 811 814 816